Location: Newark
(3.0500°N, 36.0167°E)
Time: 12:30:24
(UTC+00:00)

Transit 2A Rocket - Pass Details

Date: 23 August 2019
Orbit: 592 x 911 km, 66.7° (Epoch: 15 September)

Event Time Altitude Azimuth Distance (km) Brightness Sun altitude
Rises 13:39:37 0° 160° (SSE) 3,532 8.2 29.8°
Reaches altitude 10° 13:44:18 10° 127° (SE) 2,591 7.3 28.6°
Maximum altitude 13:46:05 11° 110° (ESE) 2,490 7.2 28.2°
Drops below altitude 10° 13:47:51 10° 93° (E) 2,574 7.3 27.7°
Sets 13:52:26 0° 60° (ENE) 3,470 8.0 26.6°
